Location: Wapato
(46.4478°N, 120.4212°W)
Time: 10:08:39
(UTC+00:00)

Injun/Solrad 3 - Pass Details

Date: 11 May 2026
Orbit: 867 x 989 km, 66.8° (Epoch: 10 June)

Event Time Altitude Azimuth Distance (km) Brightness Sun altitude
Rises 02:49:40 0° 264° (W) 3,549 12.2 4.4°
Reaches altitude 10° 02:52:49 10° 280° (W) 2,632 12.3 3.9°
Maximum altitude 02:57:24 21° 328° (NNW) 1,968 10.6 3.1°
Drops below altitude 10° 03:02:07 10° 17° (NNE) 2,703 10.4 2.4°
Sets 03:05:24 0° 33° (NNE) 3,671 10.9 1.9°
